| time (UTC) | temp C | wind direction | speed KPH | gust KPH | rain 1hr cm | rain 24hr cm | rain mn cm | humidity % | barometer mb |
| 20260506121545 | 3 | 94 | 3.2 | 6.4 | 0.00 | 0.00 | 0.00 | 64 | 1012.6 |
| 20260506120513 | 3 | 94 | 3.2 | 6.4 | 0.00 | 0.00 | 0.00 | 65 | 1012.4 |
| 20260506115513 | 3 | 94 | 3.2 | 8.0 | 0.00 | 0.00 | 0.00 | 67 | 1012.2 |
| 20260506114532 | 3 | 94 | 3.2 | 8.0 | 0.00 | 0.00 | 0.00 | 68 | 1012.0 |
| 20260506113524 | 3 | 94 | 4.8 | 9.7 | 0.00 | 0.00 | 0.00 | 68 | 1011.8 |
| 20260506112541 | 3 | 94 | 4.8 | 9.7 | 0.00 | 0.00 | 0.00 | 68 | 1011.8 |
| 20260506111522 | 3 | 94 | 4.8 | 9.7 | 0.00 | 0.00 | 0.00 | 68 | 1011.5 |
| 20260506110450 | 3 | 94 | 3.2 | 9.7 | 0.00 | 0.00 | 0.00 | 70 | 1011.2 |
| 20260506105425 | 3 | 94 | 4.8 | 9.7 | 0.00 | 0.00 | 0.00 | 71 | 1011.2 |
| 20260506104353 | 3 | 94 | 4.8 | 9.7 | 0.00 | 0.00 | 0.00 | 72 | 1011.1 |
| 20260506103330 | 3 | 94 | 6.4 | 14.5 | 0.00 | 0.00 | 0.00 | 73 | 1011.0 |
| 20260506102310 | 3 | 94 | 6.4 | 14.5 | 0.00 | 0.00 | 0.00 | 73 | 1010.9 |
| 20260506101243 | 3 | 94 | 8.0 | 14.5 | 0.00 | 0.00 | 0.00 | 73 | 1011.1 |
| 20260506100229 | 3 | 95 | 8.0 | 14.5 | 0.00 | 0.00 | 0.00 | 74 | 1011.0 |
| 20260506095200 | 3 | 94 | 6.4 | 16.1 | 0.00 | 0.00 | 0.00 | 74 | 1011.0 |
| 20260506094145 | 3 | 94 | 8.0 | 16.1 | 0.00 | 0.00 | 0.00 | 74 | 1011.0 |
| 20260506092050 | 3 | 94 | 9.7 | 16.1 | 0.00 | 0.00 | 0.00 | 75 | 1011.1 |
| 20260506091108 | 3 | 91 | 9.7 | 17.7 | 0.00 | 0.00 | 0.00 | 75 | 1011.1 |
| 20260506090106 | 3 | 93 | 9.7 | 17.7 | 0.00 | 0.00 | 0.00 | 74 | 1011.2 |
| 20260506084020 | 4 | 96 | 9.7 | 17.7 | 0.00 | 0.00 | 0.00 | 73 | 1011.1 |
| 20260506083036 | 4 | 93 | 9.7 | 17.7 | 0.00 | 0.00 | 0.00 | 73 | 1011.1 |
| 20260506082100 | 4 | 96 | 9.7 | 17.7 | 0.00 | 0.00 | 0.00 | 74 | 1010.9 |
| 20260506071658 | 4 | 87 | 1.6 | 4.8 | 0.00 | 0.00 | 0.00 | 79 | 1010.4 |
| 20260506070632 | 4 | 87 | 1.6 | 3.2 | 0.00 | 0.08 | 0.00 | 80 | 1010.6 |
| 20260506062444 | 4 | 87 | 0.0 | 0.0 | 0.00 | 0.18 | 0.00 | 80 | 1010.6 |
| 20260506061430 | 4 | 87 | 0.0 | 0.0 | 0.00 | 0.18 | 0.00 | 79 | 1010.7 |
| 20260506060448 | 4 | 87 | 0.0 | 1.6 | 0.00 | 0.18 | 0.00 | 79 | 1010.5 |
| 20260506050509 | 3 | 87 | 0.0 | 0.0 | 0.00 | 0.74 | 0.00 | 76 | 1011.0 |
| 20260506043403 | 3 | 87 | 0.0 | 0.0 | 0.00 | 0.74 | 0.00 | 74 | 1010.9 |
| 20260506040101 | 3 | 87 | 0.0 | 0.0 | 0.00 | 0.74 | 0.00 | 74 | 1010.6 |
| 20260506035033 | 4 | 87 | 0.0 | 0.0 | 0.00 | 0.74 | 0.74 | 74 | 1010.7 |
| 20260506034050 | 4 | 87 | 0.0 | 0.0 | 0.00 | 0.74 | 0.74 | 75 | 1010.6 |
| 20260506033026 | 4 | 87 | 0.0 | 1.6 | 0.00 | 0.74 | 0.74 | 75 | 1010.7 |
| 20260506032026 | 4 | 87 | 0.0 | 1.6 | 0.00 | 0.74 | 0.74 | 74 | 1010.6 |
| 20260506025907 | 4 | 87 | 0.0 | 4.8 | 0.00 | 0.74 | 0.74 | 75 | 1010.5 |
| 20260506024926 | 4 | 87 | 0.0 | 3.2 | 0.00 | 0.74 | 0.74 | 76 | 1010.4 |
| 20260506023921 | 4 | 87 | 0.0 | 3.2 | 0.00 | 0.74 | 0.74 | 77 | 1010.5 |
| 20260506022900 | 4 | 87 | 0.0 | 3.2 | 0.00 | 0.74 | 0.74 | 75 | 1010.4 |
| 20260506021917 | 4 | 87 | 0.0 | 3.2 | 0.00 | 0.74 | 0.74 | 74 | 1010.5 |
| 20260506020911 | 4 | 87 | 0.0 | 1.6 | 0.00 | 0.74 | 0.74 | 73 | 1010.6 |
| 20260506015921 | 4 | 87 | 0.0 | 0.0 | 0.00 | 0.74 | 0.74 | 72 | 1010.8 |
| 20260506014849 | 4 | 87 | 0.0 | 0.0 | 0.00 | 0.74 | 0.74 | 72 | 1010.6 |
| 20260506013839 | 4 | 87 | 0.0 | 0.0 | 0.00 | 0.74 | 0.74 | 71 | 1010.4 |
| 20260506012903 | 4 | 87 | 0.0 | 1.6 | 0.00 | 0.74 | 0.74 | 72 | 1010.5 |
| 20260506011859 | 5 | 87 | 0.0 | 1.6 | 0.00 | 0.74 | 0.74 | 71 | 1010.2 |
| 20260506005804 | 5 | 87 | 0.0 | 1.6 | 0.00 | 0.74 | 0.74 | 70 | 1009.7 |
| 20260506004825 | 5 | 87 | 0.0 | 0.0 | 0.00 | 0.74 | 0.74 | 69 | 1009.7 |
| 20260506002703 | 5 | 87 | 1.6 | 3.2 | 0.00 | 0.74 | 0.74 | 67 | 1009.5 |
| 20260506000539 | 6 | 87 | 3.2 | 6.4 | 0.00 | 0.74 | 0.74 | 68 | 1009.2 |
| 20260505234408 | 7 | 87 | 3.2 | 6.4 | 0.00 | 0.74 | 0.74 | 64 | 1009.2 |
| 20260505233417 | 7 | 87 | 3.2 | 8.0 | 0.00 | 0.74 | 0.74 | 64 | 1009.1 |
| 20260505232345 | 7 | 87 | 4.8 | 12.9 | 0.00 | 0.74 | 0.74 | 62 | 1009.1 |
| 20260505231349 | 7 | 88 | 6.4 | 14.5 | 0.00 | 0.74 | 0.74 | 60 | 1009.0 |
| 20260505230342 | 7 | 87 | 6.4 | 14.5 | 0.00 | 0.74 | 0.74 | 60 | 1009.0 |
| 20260505225353 | 7 | 78 | 8.0 | 17.7 | 0.00 | 0.74 | 0.74 | 62 | 1009.1 |
| 20260505224344 | 7 | 94 | 8.0 | 17.7 | 0.00 | 0.74 | 0.74 | 61 | 1009.0 |
| 20260505223334 | 7 | 94 | 8.0 | 16.1 | 0.00 | 0.74 | 0.74 | 63 | 1009.0 |
| 20260505222351 | 7 | 92 | 8.0 | 14.5 | 0.00 | 0.74 | 0.74 | 61 | 1009.2 |
| 20260505221350 | 8 | 97 | 6.4 | 11.3 | 0.00 | 0.74 | 0.74 | 61 | 1009.2 |
| 20260505220352 | 10 | 98 | 6.4 | 9.7 | 0.00 | 0.74 | 0.74 | 56 | 1009.2 |
| 20260505215407 | 10 | 324 | 3.2 | 8.0 | 0.00 | 0.74 | 0.74 | 53 | 1008.9 |
| 20260505214348 | 11 | 280 | 1.6 | 9.7 | 0.00 | 0.74 | 0.74 | 53 | 1008.9 |
| 20260505213408 | 11 | 278 | 6.4 | 16.1 | 0.00 | 0.74 | 0.74 | 50 | 1009.0 |
| 20260505210154 | 11 | 279 | 6.4 | 17.7 | 0.00 | 0.74 | 0.74 | 49 | 1008.8 |
| 20260505204059 | 11 | 285 | 8.0 | 19.3 | 0.00 | 0.74 | 0.74 | 47 | 1008.6 |
| 20260505203035 | 12 | 295 | 6.4 | 17.7 | 0.00 | 0.74 | 0.74 | 49 | 1008.5 |
| 20260505200925 | 12 | 270 | 12.9 | 24.1 | 0.00 | 0.74 | 0.74 | 48 | 1008.5 |
| 20260505195918 | 12 | 276 | 8.0 | 17.7 | 0.00 | 0.74 | 0.74 | 49 | 1008.4 |
| 20260505194929 | 12 | 278 | 6.4 | 20.9 | 0.00 | 0.74 | 0.74 | 48 | 1008.1 |
| 20260505193906 | 11 | 287 | 9.7 | 20.9 | 0.00 | 0.74 | 0.74 | 47 | 1008.1 |
| 20260505192911 | 12 | 295 | 8.0 | 16.1 | 0.00 | 0.74 | 0.74 | 48 | 1008.0 |
| 20260505191908 | 11 | 273 | 6.4 | 20.9 | 0.00 | 0.74 | 0.74 | 47 | 1008.1 |
| 20260505190914 | 11 | 261 | 11.3 | 24.1 | 0.00 | 0.74 | 0.74 | 48 | 1008.1 |
| 20260505184720 | 12 | 244 | 9.7 | 20.9 | 0.00 | 0.74 | 0.74 | 46 | 1007.7 |
| 20260505183705 | 11 | 244 | 6.4 | 19.3 | 0.00 | 0.74 | 0.74 | 49 | 1007.8 |
| 20260505182649 | 11 | 235 | 6.4 | 19.3 | 0.00 | 0.74 | 0.74 | 52 | 1007.7 |
| 20260505181620 | 10 | 273 | 6.4 | 19.3 | 0.00 | 0.74 | 0.74 | 52 | 1007.8 |
| 20260505180612 | 10 | 257 | 3.2 | 16.1 | 0.00 | 0.74 | 0.74 | 55 | 1007.6 |
| 20260505175614 | 10 | 273 | 6.4 | 19.3 | 0.00 | 0.74 | 0.74 | 55 | 1007.6 |
| 20260505174620 | 10 | 295 | 8.0 | 19.3 | 0.00 | 0.74 | 0.74 | 56 | 1007.5 |
| 20260505172545 | 8 | 235 | 8.0 | 19.3 | 0.00 | 0.74 | 0.74 | 59 | 1007.3 |
| 20260505170401 | 8 | 284 | 6.4 | 14.5 | 0.00 | 0.74 | 0.74 | 62 | 1007.4 |
| 20260505165415 | 8 | 280 | 4.8 | 17.7 | 0.00 | 0.74 | 0.74 | 64 | 1007.3 |
| 20260505164433 | 8 | 296 | 8.0 | 17.7 | 0.00 | 0.74 | 0.74 | 64 | 1007.3 |
| 20260505163424 | 8 | 286 | 6.4 | 16.1 | 0.00 | 0.74 | 0.74 | 64 | 1007.1 |
| 20260505162440 | 8 | 313 | 8.0 | 22.5 | 0.00 | 0.74 | 0.74 | 64 | 1006.9 |
| 20260505160318 | 8 | 284 | 9.7 | 20.9 | 0.00 | 0.74 | 0.74 | 61 | 1006.9 |
| 20260505153226 | 8 | 282 | 12.9 | 20.9 | 0.00 | 0.74 | 0.74 | 62 | 1006.2 |
| 20260505152217 | 8 | 284 | 9.7 | 20.9 | 0.00 | 0.74 | 0.74 | 63 | 1006.4 |
| 20260505124747 | 6 | 280 | 1.6 | 8.0 | 0.00 | 0.74 | 0.74 | 87 | 1004.1 |
| 20260505123800 | 6 | 280 | 1.6 | 6.4 | 0.00 | 0.74 | 0.74 | 88 | 1004.0 |
| 20260505122747 | 6 | 280 | 0.0 | 3.2 | 0.00 | 0.74 | 0.74 | 89 | 1003.6 |